Location: Biltmore Gardens
(41.6070°N, 83.4666°W)
Time: 14:27:58
(UTC+00:00)

USA 32 - Pass Details

Date: 14 July 2020
Orbit: 776 x 783 km, 85.0° (Epoch: 02 August)

Event Time Altitude Azimuth Distance (km) Brightness Sun altitude
Exits shadow 06:05:50 53° 272° (W) 954 4.3 -26.5°
Maximum altitude 06:05:58 54° 278° (W) 952 4.4 -26.5°
Drops below altitude 10° 06:11:07 10° 355° (N) 2,344 7.5 -26.4°
Sets 06:13:32 0° 0° (N) 3,275 8.6 -26.3°
